Time,TemperatureF,DewpointF,PressureIn,WindDirection,WindDirectionDegrees,WindSpeedMPH,WindSpeedGustMPH,Humidity,HourlyPrecipIn,Conditions,Clouds,dailyrainin,SoftwareType,DateUTC
2013-04-25 00:00:00,55.0,50.6,30.23,East,97,0.0,0.0,85,0.00,CLR,SCT,0.00,WeatherDisplay:10.37,2013-04-24 23:00:00,
2013-04-25 00:05:00,54.7,50.3,30.23,East,99,0.0,0.0,85,0.00,CLR,SCT,0.00,WeatherDisplay:10.37,2013-04-24 23:05:00,
2013-04-25 00:10:00,54.7,50.6,30.23,NNW,331,0.0,0.0,86,0.00,CLR,SCT,0.00,WeatherDisplay:10.37,2013-04-24 23:10:00,
2013-04-25 00:15:00,54.5,50.4,30.23,NW,315,0.0,0.0,86,0.00,CLR,SCT,0.00,WeatherDisplay:10.37,2013-04-24 23:15:00,
2013-04-25 00:20:00,54.3,50.2,30.23,NW,320,0.0,0.0,86,0.00,CLR,SCT,0.00,WeatherDisplay:10.37,2013-04-24 23:20:00,
2013-04-25 00:25:00,54.1,50.4,30.23,NW,320,0.0,0.0,87,0.00,CLR,SCT,0.00,WeatherDisplay:10.37,2013-04-24 23:25:00,
2013-04-25 00:30:00,54.1,50.4,30.24,NW,321,0.0,2.0,87,0.00,CLR,SCT,0.00,WeatherDisplay:10.37,2013-04-24 23:30:00,
2013-04-25 00:35:00,54.0,50.2,30.24,NW,316,0.0,2.0,87,0.00,CLR,SCT,0.00,WeatherDisplay:10.37,2013-04-24 23:35:00,
2013-04-25 00:40:00,54.0,50.5,30.23,NW,308,2.0,2.0,88,0.00,CLR,SCT,0.00,WeatherDisplay:10.37,2013-04-24 23:40:00,
2013-04-25 00:45:00,53.9,50.4,30.24,WNW,287,2.0,2.0,88,0.00,CLR,SCT,0.00,WeatherDisplay:10.37,2013-04-24 23:45:00,
2013-04-25 00:50:00,53.8,50.3,30.24,West,281,2.0,2.0,88,0.00,CLR,SCT,0.00,WeatherDisplay:10.37,2013-04-24 23:50:00,
2013-04-25 00:55:00,53.8,50.3,30.24,WNW,294,1.0,2.0,88,0.00,CLR,SCT,0.00,WeatherDisplay:10.37,2013-04-24 23:55:00,
2013-04-25 01:00:00,53.8,50.3,30.24,WNW,301,1.0,2.0,88,0.00,CLR,SCT,0.00,WeatherDisplay:10.37,2013-04-25 00:00:00,
2013-04-25 01:10:00,53.4,50.0,30.24,NW,309,1.0,2.0,88,0.00,CLR,SCT,0.00,WeatherDisplay:10.37,2013-04-25 00:10:00,
2013-04-25 01:15:00,53.2,49.8,30.24,NW,310,0.0,0.0,88,0.00,CLR,SCT,0.00,WeatherDisplay:10.37,2013-04-25 00:15:00,
2013-04-25 01:25:00,52.9,49.4,30.23,North,10,0.0,0.0,88,0.00,CLR,SCT,0.00,WeatherDisplay:10.37,2013-04-25 00:25:00,
2013-04-25 01:30:00,52.7,49.2,30.23,NE,37,0.0,2.0,88,0.00,CLR,SCT,0.00,WeatherDisplay:10.37,2013-04-25 00:30:00,
2013-04-25 01:40:00,52.5,49.4,30.23,NW,326,0.0,0.0,89,0.00,CLR,SCT,0.00,WeatherDisplay:10.37,2013-04-25 00:40:00,
2013-04-25 01:50:00,52.5,49.4,30.23,NW,310,0.0,0.0,89,0.00,CLR,SCT,0.00,WeatherDisplay:10.37,2013-04-25 00:50:00,
2013-04-25 01:55:00,52.5,49.4,30.23,NW,310,0.0,0.0,89,0.00,CLR,SCT,0.00,WeatherDisplay:10.37,2013-04-25 00:55:00,
2013-04-25 02:00:00,52.5,49.3,30.23,WSW,253,0.0,0.0,89,0.00,CLR,SCT,0.00,WeatherDisplay:10.37,2013-04-25 01:00:00,
2013-04-25 02:05:00,52.3,49.2,30.22,SSW,192,0.0,0.0,89,0.00,CLR,SCT,0.00,WeatherDisplay:10.37,2013-04-25 01:05:00,
2013-04-25 02:10:00,52.2,49.0,30.22,SSE,151,0.0,0.0,89,0.00,CLR,SCT,0.00,WeatherDisplay:10.37,2013-04-25 01:10:00,
2013-04-25 02:15:00,51.9,48.8,30.22,SSE,168,0.0,0.0,89,0.00,CLR,SCT,0.00,WeatherDisplay:10.37,2013-04-25 01:15:00,
2013-04-25 02:25:00,51.6,48.2,30.22,NW,313,0.0,0.0,88,0.00,CLR,SCT,0.00,WeatherDisplay:10.37,2013-04-25 01:25:00,
2013-04-25 02:30:00,51.6,48.1,30.22,West,273,0.0,0.0,88,0.00,CLR,SCT,0.00,WeatherDisplay:10.37,2013-04-25 01:30:00,
2013-04-25 02:35:00,51.3,47.8,30.22,SSE,152,0.0,0.0,88,0.00,CLR,SCT,0.00,WeatherDisplay:10.37,2013-04-25 01:35:00,
2013-04-25 02:40:00,51.1,47.6,30.22,SE,135,0.0,0.0,88,0.00,CLR,SCT,0.00,WeatherDisplay:10.37,2013-04-25 01:40:00,
2013-04-25 02:45:00,50.9,47.5,30.22,SE,135,0.0,0.0,88,0.00,CLR,SCT,0.00,WeatherDisplay:10.37,2013-04-25 01:45:00,
2013-04-25 02:50:00,50.7,47.3,30.22,SE,135,0.0,0.0,88,0.00,CLR,SCT,0.00,WeatherDisplay:10.37,2013-04-25 01:50:00,
2013-04-25 03:00:00,50.5,47.1,30.22,SE,135,0.0,0.0,88,0.00,CLR,SCT,0.00,WeatherDisplay:10.37,2013-04-25 02:00:00,
2013-04-25 03:05:00,50.5,47.1,30.21,SE,138,0.0,0.0,88,0.00,CLR,SCT,0.00,WeatherDisplay:10.37,2013-04-25 02:05:00,
2013-04-25 03:15:00,50.5,46.8,30.21,SSE,158,0.0,0.0,87,0.00,CLR,SCT,0.00,WeatherDisplay:10.37,2013-04-25 02:15:00,
2013-04-25 03:25:00,50.5,46.8,30.21,SSE,158,0.0,0.0,87,0.00,CLR,SCT,0.00,WeatherDisplay:10.37,2013-04-25 02:25:00,
2013-04-25 03:30:00,50.5,46.7,30.20,South,170,0.0,0.0,87,0.00,CLR,SCT,0.00,WeatherDisplay:10.37,2013-04-25 02:30:00,
2013-04-25 03:35:00,50.4,46.6,30.20,SSW,193,0.0,0.0,87,0.00,CLR,SCT,0.00,WeatherDisplay:10.37,2013-04-25 02:35:00,
2013-04-25 03:40:00,50.2,46.5,30.20,SSW,202,0.0,0.0,87,0.00,CLR,SCT,0.00,WeatherDisplay:10.37,2013-04-25 02:40:00,
2013-04-25 03:50:00,49.8,46.1,30.21,SSW,202,0.0,0.0,87,0.00,CLR,SCT,0.00,WeatherDisplay:10.37,2013-04-25 02:50:00,
2013-04-25 03:55:00,49.8,46.1,30.20,SSW,213,0.0,0.0,87,0.00,CLR,SCT,0.00,WeatherDisplay:10.37,2013-04-25 02:55:00,
2013-04-25 04:00:00,49.8,46.4,30.20,SW,224,0.0,0.0,88,0.00,CLR,SCT,0.00,WeatherDisplay:10.37,2013-04-25 03:00:00,
2013-04-25 04:05:00,49.5,45.7,30.19,SW,225,0.0,0.0,87,0.00,CLR,SCT,0.00,WeatherDisplay:10.37,2013-04-25 03:05:00,
2013-04-25 04:10:00,49.3,45.6,30.19,SW,225,0.0,0.0,87,0.00,CLR,SCT,0.00,WeatherDisplay:10.37,2013-04-25 03:10:00,
2013-04-25 04:15:00,49.1,45.4,30.19,SW,225,0.0,0.0,87,0.00,CLR,SCT,0.00,WeatherDisplay:10.37,2013-04-25 03:15:00,
2013-04-25 04:25:00,48.7,45.0,30.20,SW,219,0.0,0.0,87,0.00,CLR,SCT,0.00,WeatherDisplay:10.37,2013-04-25 03:25:00,
2013-04-25 04:30:00,48.7,45.0,30.19,SW,216,0.0,0.0,87,0.00,CLR,SCT,0.00,WeatherDisplay:10.37,2013-04-25 03:30:00,
2013-04-25 04:40:00,48.6,44.9,30.19,SW,225,0.0,0.0,87,0.00,CLR,SCT,0.00,WeatherDisplay:10.37,2013-04-25 03:40:00,
2013-04-25 04:45:00,48.4,44.7,30.19,SW,225,0.0,0.0,87,0.00,CLR,SCT,0.00,WeatherDisplay:10.37,2013-04-25 03:45:00,
2013-04-25 04:50:00,48.4,45.0,30.19,SW,225,0.0,0.0,88,0.00,CLR,SCT,0.00,WeatherDisplay:10.37,2013-04-25 03:50:00,
2013-04-25 04:55:00,48.4,45.0,30.19,SSW,207,0.0,0.0,88,0.00,CLR,SCT,0.00,WeatherDisplay:10.37,2013-04-25 03:55:00,
2013-04-25 05:00:00,48.2,44.8,30.19,SSW,212,0.0,0.0,88,0.00,CLR,SCT,0.00,WeatherDisplay:10.37,2013-04-25 04:00:00,
2013-04-25 05:05:00,48.2,44.8,30.19,WSW,257,0.0,0.0,88,0.00,CLR,SCT,0.00,WeatherDisplay:10.37,2013-04-25 04:05:00,
2013-04-25 05:10:00,48.0,44.6,30.19,West,270,0.0,0.0,88,0.00,CLR,SCT,0.00,WeatherDisplay:10.37,2013-04-25 04:10:00,
2013-04-25 05:15:00,48.0,44.9,30.19,WNW,284,0.0,0.0,89,0.00,CLR,SCT,0.00,WeatherDisplay:10.37,2013-04-25 04:15:00,
2013-04-25 05:20:00,48.2,45.1,30.19,NW,305,0.0,0.0,89,0.00,CLR,SCT,0.00,WeatherDisplay:10.37,2013-04-25 04:20:00,
2013-04-25 05:25:00,48.4,45.6,30.19,NW,310,0.0,0.0,90,0.00,CLR,SCT,0.00,WeatherDisplay:10.37,2013-04-25 04:25:00,
2013-04-25 05:30:00,48.4,45.6,30.19,WNW,301,1.0,1.0,90,0.00,CLR,SCT,0.00,WeatherDisplay:10.37,2013-04-25 04:30:00,
2013-04-25 05:35:00,48.4,45.6,30.19,WNW,298,0.0,1.0,90,0.00,CLR,SCT,0.00,WeatherDisplay:10.37,2013-04-25 04:35:00,
2013-04-25 05:45:00,48.4,45.9,30.19,SSW,195,0.0,0.0,91,0.00,CLR,SCT,0.00,WeatherDisplay:10.37,2013-04-25 04:45:00,
2013-04-25 05:50:00,48.7,46.2,30.19,West,260,1.0,2.0,91,0.00,CLR,SCT,0.00,WeatherDisplay:10.37,2013-04-25 04:50:00,
2013-04-25 05:55:00,48.7,46.2,30.19,WNW,299,0.0,2.0,91,0.00,CLR,SCT,0.00,WeatherDisplay:10.37,2013-04-25 04:55:00,
2013-04-25 06:00:00,48.9,46.4,30.19,NW,313,0.0,2.0,91,0.00,CLR,SCT,0.00,WeatherDisplay:10.37,2013-04-25 05:00:00,
2013-04-25 06:10:00,49.3,47.1,30.19,North,359,0.0,0.0,92,0.00,CLR,SCT,0.00,WeatherDisplay:10.37,2013-04-25 05:10:00,
2013-04-25 06:15:00,49.3,47.1,30.18,NNE,12,0.0,0.0,92,0.00,CLR,SCT,0.00,WeatherDisplay:10.37,2013-04-25 05:15:00,
2013-04-25 06:20:00,49.3,47.1,30.19,North,2,0.0,0.0,92,0.00,CLR,SCT,0.00,WeatherDisplay:10.37,2013-04-25 05:20:00,
2013-04-25 06:25:00,49.3,47.1,30.19,North,359,0.0,0.0,92,0.00,CLR,SCT,0.00,WeatherDisplay:10.37,2013-04-25 05:25:00,
2013-04-25 06:30:00,49.6,47.4,30.19,NW,308,0.0,0.0,92,0.00,CLR,SCT,0.00,WeatherDisplay:10.37,2013-04-25 05:30:00,
2013-04-25 06:35:00,49.8,47.5,30.19,NW,308,0.0,2.0,92,0.00,CLR,SCT,0.00,WeatherDisplay:10.37,2013-04-25 05:35:00,
2013-04-25 06:40:00,49.8,47.6,30.19,NW,326,1.0,2.0,92,0.00,CLR,SCT,0.00,WeatherDisplay:10.37,2013-04-25 05:40:00,
2013-04-25 06:45:00,49.8,47.6,30.19,NW,315,1.0,1.0,92,0.00,CLR,SCT,0.00,WeatherDisplay:10.37,2013-04-25 05:45:00,
2013-04-25 06:50:00,49.8,47.6,30.18,NW,315,0.0,1.0,92,0.00,CLR,SCT,0.00,WeatherDisplay:10.37,2013-04-25 05:50:00,
2013-04-25 06:55:00,50.1,47.9,30.18,NW,306,1.0,2.0,92,0.00,CLR,SCT,0.00,WeatherDisplay:10.37,2013-04-25 05:55:00,
2013-04-25 07:01:00,50.2,47.9,30.18,North,5,1.0,2.0,92,0.00,CLR,SCT,0.00,WeatherDisplay:10.37,2013-04-25 06:01:00,
2013-04-25 07:10:00,50.5,48.3,30.19,NNE,20,0.0,0.0,92,0.00,CLR,SCT,0.00,WeatherDisplay:10.37,2013-04-25 06:10:00,
2013-04-25 07:20:00,50.8,48.5,30.19,NW,319,0.0,1.0,92,0.00,CLR,SCT,0.00,WeatherDisplay:10.37,2013-04-25 06:20:00,
2013-04-25 07:25:00,50.9,48.7,30.19,NW,326,1.0,1.0,92,0.00,CLR,SCT,0.00,WeatherDisplay:10.37,2013-04-25 06:25:00,
2013-04-25 07:35:00,51.9,49.4,30.19,ESE,109,0.0,1.0,91,0.00,CLR,SCT,0.00,WeatherDisplay:10.37,2013-04-25 06:35:00,
2013-04-25 07:40:00,52.1,49.6,30.18,ESE,116,0.0,3.0,91,0.00,CLR,SCT,0.00,WeatherDisplay:10.37,2013-04-25 06:40:00,
2013-04-25 07:50:00,52.7,49.8,30.18,ENE,75,0.0,2.0,90,0.00,CLR,SCT,0.00,WeatherDisplay:10.37,2013-04-25 06:50:00,
2013-04-25 07:55:00,52.9,50.0,30.19,East,101,2.0,2.0,90,0.00,CLR,SCT,0.00,WeatherDisplay:10.37,2013-04-25 06:55:00,
2013-04-25 08:00:00,53.4,50.3,30.18,East,88,0.0,1.0,89,0.00,CLR,SCT,0.00,WeatherDisplay:10.37,2013-04-25 07:00:00,
2013-04-25 08:05:00,53.4,50.3,30.18,East,93,1.0,1.0,89,0.00,CLR,SCT,0.00,WeatherDisplay:10.37,2013-04-25 07:05:00,
2013-04-25 08:15:00,54.0,50.5,30.19,ESE,109,1.0,2.0,88,0.00,CLR,SCT,0.00,WeatherDisplay:10.37,2013-04-25 07:15:00,
2013-04-25 08:20:00,54.0,50.2,30.18,ESE,106,0.0,1.0,87,0.00,CLR,SCT,0.00,WeatherDisplay:10.37,2013-04-25 07:20:00,
2013-04-25 08:25:00,54.0,50.2,30.18,NE,46,0.0,1.0,87,0.00,CLR,SCT,0.00,WeatherDisplay:10.37,2013-04-25 07:25:00,
2013-04-25 08:30:00,54.1,50.4,30.18,NW,315,2.0,2.0,87,0.00,CLR,SCT,0.00,WeatherDisplay:10.37,2013-04-25 07:30:00,
2013-04-25 08:35:00,54.1,50.4,30.18,NW,316,0.0,0.0,87,0.00,CLR,SCT,0.00,WeatherDisplay:10.37,2013-04-25 07:35:00,
2013-04-25 08:40:00,54.3,50.2,30.18,North,5,0.0,0.0,86,0.00,CLR,SCT,0.00,WeatherDisplay:10.37,2013-04-25 07:40:00,
2013-04-25 08:45:00,54.5,50.4,30.18,North,9,0.0,0.0,86,0.00,CLR,SCT,0.00,WeatherDisplay:10.37,2013-04-25 07:45:00,
2013-04-25 08:50:00,54.9,50.8,30.18,ENE,60,0.0,0.0,86,0.00,CLR,SCT,0.00,WeatherDisplay:10.37,2013-04-25 07:50:00,
2013-04-25 08:55:00,55.4,51.3,30.18,ENE,71,0.0,0.0,86,0.00,CLR,SCT,0.00,WeatherDisplay:10.37,2013-04-25 07:55:00,
2013-04-25 09:05:00,56.6,52.1,30.18,ESE,123,0.0,1.0,85,0.00,CLR,SCT,0.00,WeatherDisplay:10.37,2013-04-25 08:05:00,
2013-04-25 09:10:00,56.9,52.5,30.17,ESE,109,0.0,3.0,85,0.00,CLR,SCT,0.00,WeatherDisplay:10.37,2013-04-25 08:10:00,
2013-04-25 09:20:00,57.5,52.4,30.18,WNW,295,2.0,3.0,83,0.00,CLR,SCT,0.00,WeatherDisplay:10.37,2013-04-25 08:20:00,
2013-04-25 09:30:00,57.4,51.9,30.18,WNW,295,1.0,2.0,82,0.00,CLR,SCT,0.00,WeatherDisplay:10.37,2013-04-25 08:30:00,
2013-04-25 09:35:00,57.4,51.9,30.17,NW,310,1.0,4.0,82,0.00,CLR,SCT,0.00,WeatherDisplay:10.37,2013-04-25 08:35:00,
2013-04-25 09:45:00,57.6,52.1,30.18,NNE,17,1.0,5.0,82,0.00,CLR,SCT,0.00,WeatherDisplay:10.37,2013-04-25 08:45:00,
2013-04-25 09:55:00,57.9,52.1,30.17,East,98,1.0,2.0,81,0.00,CLR,SCT,0.00,WeatherDisplay:10.37,2013-04-25 08:55:00,
2013-04-25 10:00:00,58.7,52.9,30.17,WSW,258,1.0,2.0,81,0.00,CLR,SCT,0.00,WeatherDisplay:10.37,2013-04-25 09:00:00,
2013-04-25 10:05:00,59.1,52.9,30.17,NW,308,2.0,4.0,80,0.00,CLR,SCT,0.00,WeatherDisplay:10.37,2013-04-25 09:05:00,
2013-04-25 10:10:00,59.7,53.2,30.18,NW,322,0.0,4.0,79,0.00,CLR,SCT,0.00,WeatherDisplay:10.37,2013-04-25 09:10:00,
2013-04-25 10:15:00,60.5,53.6,30.17,NW,322,3.0,4.0,78,0.00,CLR,SCT,0.00,WeatherDisplay:10.37,2013-04-25 09:15:00,
2013-04-25 10:20:00,61.3,54.0,30.17,NE,46,2.0,3.0,77,0.00,CLR,SCT,0.00,WeatherDisplay:10.37,2013-04-25 09:20:00,
2013-04-25 10:25:00,62.4,55.1,30.17,East,79,1.0,3.0,77,0.00,CLR,SCT,0.00,WeatherDisplay:10.37,2013-04-25 09:25:00,
2013-04-25 10:35:00,65.1,55.8,30.17,East,88,5.0,5.0,72,0.00,CLR,SCT,0.00,WeatherDisplay:10.37,2013-04-25 09:35:00,
2013-04-25 10:40:00,65.7,56.4,30.17,NE,44,1.0,2.0,72,0.00,CLR,SCT,0.00,WeatherDisplay:10.37,2013-04-25 09:40:00,
2013-04-25 10:45:00,66.0,56.3,30.16,NW,304,0.0,2.0,71,0.00,CLR,SCT,0.00,WeatherDisplay:10.37,2013-04-25 09:45:00,
2013-04-25 10:50:00,66.0,55.6,30.17,WNW,286,2.0,3.0,69,0.00,CLR,SCT,0.00,WeatherDisplay:10.37,2013-04-25 09:50:00,
2013-04-25 10:55:00,66.1,55.2,30.16,West,277,3.0,4.0,68,0.00,CLR,SCT,0.00,WeatherDisplay:10.37,2013-04-25 09:55:00,
2013-04-25 11:00:00,65.8,55.0,30.16,WNW,290,1.0,4.0,68,0.00,CLR,SCT,0.00,WeatherDisplay:10.37,2013-04-25 10:00:00,
2013-04-25 11:05:00,66.0,55.2,30.16,West,269,2.0,4.0,68,0.00,CLR,SCT,0.00,WeatherDisplay:10.37,2013-04-25 10:05:00,
2013-04-25 11:15:00,66.6,55.7,30.15,WNW,300,2.0,3.0,68,0.00,CLR,SCT,0.00,WeatherDisplay:10.37,2013-04-25 10:15:00,
2013-04-25 11:20:00,67.5,57.0,30.15,NW,326,2.0,3.0,69,0.00,CLR,SCT,0.00,WeatherDisplay:10.37,2013-04-25 10:20:00,
2013-04-25 11:25:00,68.2,57.7,30.15,ENE,63,3.0,4.0,69,0.00,CLR,SCT,0.00,WeatherDisplay:10.37,2013-04-25 10:25:00,
2013-04-25 11:35:00,68.7,56.5,30.15,NNW,337,2.0,3.0,65,0.00,CLR,SCT,0.00,WeatherDisplay:10.37,2013-04-25 10:35:00,
2013-04-25 11:45:00,69.0,57.2,30.15,NE,34,2.0,3.0,66,0.00,CLR,SCT,0.00,WeatherDisplay:10.37,2013-04-25 10:45:00,
2013-04-25 11:50:00,69.8,57.5,30.14,East,100,0.0,0.0,65,0.00,CLR,SCT,0.00,WeatherDisplay:10.37,2013-04-25 10:50:00,
2013-04-25 11:55:00,70.0,57.2,30.13,NE,47,2.0,2.0,64,0.00,CLR,SCT,0.00,WeatherDisplay:10.37,2013-04-25 10:55:00,
2013-04-25 12:00:00,70.4,58.0,30.13,ESE,110,1.0,5.0,65,0.00,CLR,SCT,0.00,WeatherDisplay:10.37,2013-04-25 11:00:00,
2013-04-25 12:10:00,71.2,58.0,30.13,West,280,1.0,2.0,63,0.00,CLR,SCT,0.00,WeatherDisplay:10.37,2013-04-25 11:10:00,
2013-04-25 12:15:00,71.7,58.4,30.12,SE,146,3.0,3.0,63,0.00,CLR,SCT,0.00,WeatherDisplay:10.37,2013-04-25 11:15:00,
2013-04-25 12:20:00,72.0,57.8,30.12,NNW,346,2.0,3.0,61,0.00,CLR,SCT,0.00,WeatherDisplay:10.37,2013-04-25 11:20:00,
2013-04-25 12:25:00,71.8,57.6,30.12,ENE,64,7.0,7.0,61,0.00,CLR,SCT,0.00,WeatherDisplay:10.37,2013-04-25 11:25:00,
2013-04-25 12:30:00,71.9,57.7,30.11,ENE,70,2.0,7.0,61,0.00,CLR,SCT,0.00,WeatherDisplay:10.37,2013-04-25 11:30:00,
2013-04-25 12:35:00,72.5,57.8,30.11,WSW,257,2.0,3.0,60,0.00,CLR,SCT,0.00,WeatherDisplay:10.37,2013-04-25 11:35:00,
2013-04-25 12:40:00,72.3,57.2,30.11,WNW,288,3.0,3.0,59,0.00,CLR,SCT,0.00,WeatherDisplay:10.37,2013-04-25 11:40:00,
2013-04-25 12:45:00,72.4,57.7,30.11,NNW,345,2.0,6.0,60,0.00,CLR,SCT,0.00,WeatherDisplay:10.37,2013-04-25 11:45:00,
2013-04-25 15:35:00,75.6,52.7,30.06,NW,307,2.0,6.0,45,0.00,CLR,SCT,0.00,WeatherDisplay:10.37,2013-04-25 14:35:00,
2013-04-25 15:40:00,75.5,52.7,30.06,WNW,286,3.0,4.0,45,0.00,CLR,SCT,0.00,WeatherDisplay:10.37,2013-04-25 14:40:00,
2013-04-25 15:45:00,75.2,51.8,30.06,WNW,284,8.0,9.0,44,0.00,CLR,SCT,0.00,WeatherDisplay:10.37,2013-04-25 14:45:00,
2013-04-25 15:50:00,74.3,51.0,30.06,WNW,289,3.0,5.0,44,0.00,CLR,SCT,0.00,WeatherDisplay:10.37,2013-04-25 14:50:00,
2013-04-25 16:00:00,73.4,51.3,30.05,WNW,299,5.0,8.0,46,0.00,CLR,SCT,0.00,WeatherDisplay:10.37,2013-04-25 15:00:00,
2013-04-25 16:05:00,73.2,51.2,30.05,West,278,6.0,8.0,46,0.00,CLR,SCT,0.00,WeatherDisplay:10.37,2013-04-25 15:05:00,
2013-04-25 16:10:00,73.5,52.1,30.05,West,279,6.0,12.0,47,0.00,CLR,SCT,0.00,WeatherDisplay:10.37,2013-04-25 15:10:00,
2013-04-25 16:15:00,73.9,52.4,30.05,WNW,289,7.0,12.0,47,0.00,CLR,SCT,0.00,WeatherDisplay:10.37,2013-04-25 15:15:00,
2013-04-25 16:20:00,74.1,52.0,30.05,WNW,295,6.0,10.0,46,0.00,CLR,SCT,0.00,WeatherDisplay:10.37,2013-04-25 15:20:00,
2013-04-25 16:25:00,73.9,52.4,30.05,WNW,302,7.0,10.0,47,0.00,CLR,SCT,0.00,WeatherDisplay:10.37,2013-04-25 15:25:00,
2013-04-25 16:30:00,73.9,52.4,30.04,West,281,5.0,6.0,47,0.00,CLR,SCT,0.00,WeatherDisplay:10.37,2013-04-25 15:30:00,
2013-04-25 16:40:00,73.6,52.1,30.04,NW,309,5.0,6.0,47,0.00,CLR,SCT,0.00,WeatherDisplay:10.37,2013-04-25 15:40:00,
2013-04-25 16:50:00,73.6,52.7,30.03,WNW,295,3.0,8.0,48,0.00,CLR,SCT,0.00,WeatherDisplay:10.37,2013-04-25 15:50:00,
2013-04-25 16:55:00,73.6,52.7,30.03,West,274,5.0,6.0,48,0.00,CLR,SCT,0.00,WeatherDisplay:10.37,2013-04-25 15:55:00,
2013-04-25 17:00:00,73.8,52.8,30.03,WNW,291,3.0,5.0,48,0.00,CLR,SCT,0.00,WeatherDisplay:10.37,2013-04-25 16:00:00,
2013-04-25 17:05:00,73.9,52.4,30.03,NW,319,5.0,5.0,47,0.00,CLR,SCT,0.00,WeatherDisplay:10.37,2013-04-25 16:05:00,
2013-04-25 17:10:00,74.0,52.5,30.02,NW,310,3.0,8.0,47,0.00,CLR,SCT,0.00,WeatherDisplay:10.37,2013-04-25 16:10:00,
2013-04-25 17:15:00,75.0,52.8,30.02,NNW,331,0.0,2.0,46,0.00,CLR,SCT,0.00,WeatherDisplay:10.37,2013-04-25 16:15:00,
2013-04-25 17:20:00,76.1,52.6,30.02,NNW,330,2.0,12.0,44,0.00,CLR,SCT,0.00,WeatherDisplay:10.37,2013-04-25 16:20:00,
2013-04-25 17:25:00,77.0,52.8,30.02,NW,304,2.0,4.0,43,0.00,CLR,SCT,0.00,WeatherDisplay:10.37,2013-04-25 16:25:00,
2013-04-25 17:30:00,77.2,52.3,30.03,NW,319,5.0,6.0,42,0.00,CLR,SCT,0.00,WeatherDisplay:10.37,2013-04-25 16:30:00,
2013-04-25 17:40:00,77.6,52.0,30.02,NW,315,5.0,8.0,41,0.00,CLR,SCT,0.00,WeatherDisplay:10.37,2013-04-25 16:40:00,
2013-04-25 17:45:00,76.8,51.3,30.02,WNW,293,7.0,8.0,41,0.00,CLR,SCT,0.00,WeatherDisplay:10.37,2013-04-25 16:45:00,
2013-04-25 17:50:00,75.5,51.4,30.02,WNW,285,2.0,8.0,43,0.00,CLR,SCT,0.00,WeatherDisplay:10.37,2013-04-25 16:50:00,
2013-04-25 17:55:00,74.5,51.1,30.02,WNW,300,3.0,7.0,44,0.00,CLR,SCT,0.00,WeatherDisplay:10.37,2013-04-25 16:55:00,
2013-04-25 18:05:00,73.6,50.9,30.02,NW,316,3.0,5.0,45,0.00,CLR,SCT,0.00,WeatherDisplay:10.37,2013-04-25 17:05:00,
2013-04-25 18:10:00,73.2,51.2,30.02,WNW,297,6.0,6.0,46,0.00,CLR,SCT,0.00,WeatherDisplay:10.37,2013-04-25 17:10:00,
2013-04-25 18:20:00,73.2,51.8,30.01,WNW,300,5.0,5.0,47,0.00,CLR,SCT,0.00,WeatherDisplay:10.37,2013-04-25 17:20:00,
2013-04-25 18:25:00,74.0,52.5,30.01,NW,305,2.0,3.0,47,0.00,CLR,SCT,0.00,WeatherDisplay:10.37,2013-04-25 17:25:00,
2013-04-25 18:30:00,74.0,52.5,30.02,NW,317,2.0,3.0,47,0.00,CLR,SCT,0.00,WeatherDisplay:10.37,2013-04-25 17:30:00,
2013-04-25 18:40:00,74.4,53.4,30.02,NNW,335,2.0,3.0,48,0.00,CLR,SCT,0.00,WeatherDisplay:10.37,2013-04-25 17:40:00,
2013-04-25 18:50:00,73.8,52.3,30.02,North,353,2.0,4.0,47,0.00,CLR,SCT,0.00,WeatherDisplay:10.37,2013-04-25 17:50:00,
2013-04-25 19:00:00,73.4,51.9,30.03,WNW,293,2.0,3.0,47,0.00,CLR,SCT,0.00,WeatherDisplay:10.37,2013-04-25 18:00:00,
2013-04-25 19:05:00,73.2,51.8,30.02,WNW,297,2.0,3.0,47,0.00,CLR,SCT,0.00,WeatherDisplay:10.37,2013-04-25 18:05:00,
2013-04-25 19:10:00,72.7,51.9,30.02,NW,307,0.0,2.0,48,0.00,CLR,SCT,0.00,WeatherDisplay:10.37,2013-04-25 18:10:00,
2013-04-25 19:15:00,73.0,52.2,30.02,WSW,258,0.0,0.0,48,0.00,CLR,SCT,0.00,WeatherDisplay:10.37,2013-04-25 18:15:00,
2013-04-25 19:20:00,72.7,51.3,30.03,West,271,0.0,2.0,47,0.00,CLR,SCT,0.00,WeatherDisplay:10.37,2013-04-25 18:20:00,
2013-04-25 19:25:00,71.9,50.6,30.03,WNW,289,1.0,2.0,47,0.00,CLR,SCT,0.00,WeatherDisplay:10.37,2013-04-25 18:25:00,
2013-04-25 19:30:00,70.9,50.2,30.03,NNW,346,2.0,2.0,48,0.00,CLR,SCT,0.00,WeatherDisplay:10.37,2013-04-25 18:30:00,
2013-04-25 19:35:00,70.3,50.3,30.03,NNW,341,0.0,2.0,49,0.00,CLR,SCT,0.00,WeatherDisplay:10.37,2013-04-25 18:35:00,
2013-04-25 19:40:00,69.5,49.5,30.03,WNW,295,2.0,3.0,49,0.00,CLR,SCT,0.00,WeatherDisplay:10.37,2013-04-25 18:40:00,
2013-04-25 19:45:00,67.3,48.5,30.03,NW,312,0.0,3.0,51,0.00,CLR,SCT,0.00,WeatherDisplay:10.37,2013-04-25 18:45:00,
2013-04-25 19:50:00,65.9,48.3,30.03,NW,306,1.0,2.0,53,0.00,CLR,SCT,0.00,WeatherDisplay:10.37,2013-04-25 18:50:00,
2013-04-25 19:55:00,64.1,47.6,30.03,WSW,257,0.0,2.0,55,0.00,CLR,SCT,0.00,WeatherDisplay:10.37,2013-04-25 18:55:00,
2013-04-25 20:00:00,62.9,47.4,30.03,West,278,1.0,2.0,57,0.00,CLR,SCT,0.00,WeatherDisplay:10.37,2013-04-25 19:00:00,
2013-04-25 20:05:00,62.0,47.0,30.03,NW,306,3.0,5.0,58,0.00,CLR,SCT,0.00,WeatherDisplay:10.37,2013-04-25 19:05:00,
2013-04-25 20:15:00,60.1,46.2,30.04,NNW,327,1.0,2.0,60,0.00,CLR,SCT,0.00,WeatherDisplay:10.37,2013-04-25 19:15:00,
2013-04-25 20:20:00,59.6,46.2,30.04,NNW,337,2.0,3.0,61,0.00,CLR,SCT,0.00,WeatherDisplay:10.37,2013-04-25 19:20:00,
2013-04-25 20:25:00,59.0,46.0,30.04,NNW,330,0.0,3.0,62,0.00,CLR,SCT,0.00,WeatherDisplay:10.37,2013-04-25 19:25:00,
2013-04-25 20:30:00,58.6,45.6,30.04,NNW,333,0.0,3.0,62,0.00,CLR,SCT,0.00,WeatherDisplay:10.37,2013-04-25 19:30:00,
2013-04-25 20:40:00,57.9,45.8,30.04,WNW,282,1.0,2.0,64,0.00,CLR,SCT,0.00,WeatherDisplay:10.37,2013-04-25 19:40:00,
2013-04-25 20:50:00,57.2,45.5,30.04,NW,304,2.0,2.0,65,0.00,CLR,SCT,0.00,WeatherDisplay:10.37,2013-04-25 19:50:00,
2013-04-25 20:55:00,56.9,45.7,30.04,NNW,329,0.0,2.0,66,0.00,CLR,SCT,0.00,WeatherDisplay:10.37,2013-04-25 19:55:00,
2013-04-25 21:00:00,56.8,45.6,30.04,NNW,328,0.0,0.0,66,0.00,CLR,SCT,0.00,WeatherDisplay:10.37,2013-04-25 20:00:00,
2013-04-25 21:05:00,56.5,45.7,30.05,NW,315,0.0,0.0,67,0.00,CLR,SCT,0.00,WeatherDisplay:10.37,2013-04-25 20:05:00,
2013-04-25 21:15:00,56.1,45.3,30.05,WNW,300,0.0,0.0,67,0.00,CLR,SCT,0.00,WeatherDisplay:10.37,2013-04-25 20:15:00,
2013-04-25 21:20:00,56.1,45.3,30.05,NW,319,0.0,0.0,67,0.00,CLR,SCT,0.00,WeatherDisplay:10.37,2013-04-25 20:20:00,
2013-04-25 21:25:00,55.9,45.5,30.04,NNW,330,0.0,0.0,68,0.00,CLR,SCT,0.00,WeatherDisplay:10.37,2013-04-25 20:25:00,
2013-04-25 21:30:00,55.8,45.4,30.05,NW,306,0.0,0.0,68,0.00,CLR,SCT,0.00,WeatherDisplay:10.37,2013-04-25 20:30:00,
2013-04-25 21:35:00,55.6,45.2,30.05,WNW,285,1.0,1.0,68,0.00,CLR,SCT,0.00,WeatherDisplay:10.37,2013-04-25 20:35:00,
2013-04-25 21:40:00,55.5,45.5,30.05,WNW,284,0.0,1.0,69,0.00,CLR,SCT,0.00,WeatherDisplay:10.37,2013-04-25 20:40:00,
2013-04-25 21:45:00,55.2,45.2,30.05,WNW,292,0.0,0.0,69,0.00,CLR,SCT,0.00,WeatherDisplay:10.37,2013-04-25 20:45:00,
2013-04-25 21:50:00,55.2,45.2,30.05,WNW,292,0.0,0.0,69,0.00,CLR,SCT,0.00,WeatherDisplay:10.37,2013-04-25 20:50:00,
2013-04-25 21:55:00,55.0,45.1,30.05,WNW,292,0.0,0.0,69,0.00,CLR,SCT,0.00,WeatherDisplay:10.37,2013-04-25 20:55:00,
2013-04-25 22:00:00,55.0,45.1,30.05,WNW,286,0.0,0.0,69,0.00,CLR,SCT,0.00,WeatherDisplay:10.37,2013-04-25 21:00:00,
2013-04-25 22:05:00,55.0,45.4,30.05,WNW,287,0.0,0.0,70,0.00,CLR,SCT,0.00,WeatherDisplay:10.37,2013-04-25 21:05:00,
2013-04-25 22:10:00,54.9,45.3,30.05,WNW,287,0.0,0.0,70,0.00,CLR,SCT,0.00,WeatherDisplay:10.37,2013-04-25 21:10:00,
2013-04-25 22:20:00,54.7,45.1,30.05,WNW,292,0.0,0.0,70,0.00,CLR,SCT,0.00,WeatherDisplay:10.37,2013-04-25 21:20:00,
2013-04-25 22:25:00,54.7,45.1,30.05,WNW,293,0.0,0.0,70,0.00,CLR,SCT,0.00,WeatherDisplay:10.37,2013-04-25 21:25:00,
2013-04-25 22:30:00,54.5,45.3,30.05,NW,305,0.0,0.0,71,0.00,CLR,SCT,0.00,WeatherDisplay:10.37,2013-04-25 21:30:00,
2013-04-25 22:40:00,54.5,45.3,30.04,NE,49,0.0,0.0,71,0.00,CLR,SCT,0.00,WeatherDisplay:10.37,2013-04-25 21:40:00,
2013-04-25 22:50:00,54.5,45.7,30.05,NW,323,0.0,1.0,72,0.00,CLR,SCT,0.00,WeatherDisplay:10.37,2013-04-25 21:50:00,
2013-04-25 22:55:00,54.3,45.5,30.05,NW,312,0.0,2.0,72,0.00,CLR,SCT,0.00,WeatherDisplay:10.37,2013-04-25 21:55:00,
2013-04-25 23:00:00,54.3,45.8,30.05,WNW,292,1.0,2.0,73,0.00,CLR,SCT,0.00,WeatherDisplay:10.37,2013-04-25 22:00:00,
2013-04-25 23:05:00,54.3,45.5,30.04,WNW,291,0.0,0.0,72,0.00,CLR,SCT,0.00,WeatherDisplay:10.37,2013-04-25 22:05:00,
2013-04-25 23:10:00,54.2,45.8,30.04,NW,318,0.0,0.0,73,0.00,CLR,SCT,0.00,WeatherDisplay:10.37,2013-04-25 22:10:00,
2013-04-25 23:15:00,54.2,45.7,30.04,NW,317,0.0,0.0,73,0.00,CLR,SCT,0.00,WeatherDisplay:10.37,2013-04-25 22:15:00,
2013-04-25 23:20:00,54.1,45.7,30.04,NW,318,0.0,0.0,73,0.00,CLR,SCT,0.00,WeatherDisplay:10.37,2013-04-25 22:20:00,
2013-04-25 23:25:00,54.0,45.5,30.04,NW,307,0.0,0.0,73,0.00,CLR,SCT,0.00,WeatherDisplay:10.37,2013-04-25 22:25:00,
2013-04-25 23:30:00,54.0,45.9,30.03,WNW,289,0.0,0.0,74,0.00,CLR,SCT,0.00,WeatherDisplay:10.37,2013-04-25 22:30:00,
2013-04-25 23:35:00,54.0,45.9,30.03,WNW,302,0.0,1.0,74,0.00,CLR,SCT,0.00,WeatherDisplay:10.37,2013-04-25 22:35:00,
2013-04-25 23:40:00,53.8,45.7,30.03,WNW,294,2.0,2.0,74,0.00,CLR,SCT,0.00,WeatherDisplay:10.37,2013-04-25 22:40:00,
2013-04-25 23:45:00,53.8,45.7,30.03,WNW,295,0.0,1.0,74,0.00,CLR,SCT,0.00,WeatherDisplay:10.37,2013-04-25 22:45:00,
2013-04-25 23:50:00,53.6,45.6,30.03,WNW,283,0.0,1.0,74,0.00,CLR,SCT,0.00,WeatherDisplay:10.37,2013-04-25 22:50:00,